When you browse on this site, cookies collect data to enhance your experience and personalize the content and advertising you see.
Visit our Privacy Policy to learn more. By continuing to use the site, you agree to this use of cookies and data.
  • In Spain
  • List of Countries
  • For 7 days
  • Water Temperature
  • Satellite Maps
  • Weather Map
  • Weather Widgets
  • user-avatar
    Login

    Hourly Weather Kruhle

    Today, 24 May, Friday

    Time Temperature Precipitation Wind Pressure Humidity
    00:00 +15°C° 0.1 mm 2 mps 739 mmHg 89%
    01:00 +15°C° 0.1 mm 2 mps 739 mmHg 90%
    02:00 +15°C° 0 mm 2 mps 739 mmHg 92%
    03:00 +15°C° 0 mm 2 mps 739 mmHg 91%
    04:00 +15°C° 0 mm 2 mps 739 mmHg 91%
    05:00 +16°C° 0 mm 2 mps 740 mmHg 91%
    06:00 +18°C° 0.2 mm 2 mps 740 mmHg 85%
    07:00 +19°C° 0.2 mm 2 mps 740 mmHg 79%
    08:00 +21°C° 0 mm 2 mps 740 mmHg 72%
    09:00 +23°C° 0.5 mm 2 mps 740 mmHg 68%
    10:00 +24°C° 0.5 mm 1 mps 740 mmHg 63%
    11:00 +25°C° 0.5 mm 1 mps 740 mmHg 59%
    12:00 +25°C° 1.1 mm 1 mps 740 mmHg 58%
    13:00 +26°C° 1.1 mm 1 mps 740 mmHg 57%
    14:00 +26°C° 1.1 mm 1 mps 740 mmHg 56%
    15:00 +25°C° 1.8 mm 1 mps 740 mmHg 63%
    16:00 +24°C° 1.8 mm 2 mps 740 mmHg 69%
    17:00 +23°C° 1.8 mm 2 mps 740 mmHg 76%
    18:00 +21°C° 0.1 mm 2 mps 740 mmHg 80%
    19:00 +20°C° 0.1 mm 2 mps 740 mmHg 83%
    20:00 +18°C° 0.1 mm 3 mps 740 mmHg 87%
    21:00 +18°C° 0.1 mm 3 mps 740 mmHg 89%
    22:00 +17°C° 0.1 mm 3 mps 740 mmHg 91%
    23:00 +16°C° 0.1 mm 3 mps 740 mmHg 93%

    Tomorrow, 25 May, Saturday

    Time Temperature Precipitation Wind Pressure Humidity
    00:00 +16°C° 0.1 mm 3 mps 740 mmHg 94%
    01:00 +16°C° 0.1 mm 3 mps 740 mmHg 95%
    02:00 +14°C° 0.1 mm 3 mps 740 mmHg 95%
    03:00 +16°C° 0.4 mm 2 mps 740 mmHg 95%
    04:00 +16°C° 0.4 mm 2 mps 740 mmHg 94%
    05:00 +16°C° 0.4 mm 2 mps 740 mmHg 93%
    06:00 +17°C° 0.2 mm 3 mps 740 mmHg 89%
    07:00 +18°C° 0.2 mm 3 mps 740 mmHg 85%
    08:00 +20°C° 0.2 mm 4 mps 740 mmHg 81%
    09:00 +21°C° 1.5 mm 4 mps 740 mmHg 77%
    10:00 +21°C° 1.5 mm 4 mps 739 mmHg 74%
    11:00 +22°C° 1.5 mm 4 mps 739 mmHg 70%
    12:00 +23°C° 0.7 mm 4 mps 739 mmHg 68%
    13:00 +23°C° 0.7 mm 4 mps 739 mmHg 66%
    14:00 +25°C° 0.7 mm 4 mps 739 mmHg 65%
    15:00 +23°C° 0.4 mm 4 mps 738 mmHg 68%
    16:00 +24°C° 0.4 mm 3 mps 738 mmHg 71%
    17:00 +22°C° 0.4 mm 3 mps 738 mmHg 74%
    18:00 +21°C° 0.2 mm 3 mps 738 mmHg 78%
    19:00 +19°C° 0.2 mm 3 mps 738 mmHg 83%
    20:00 +17°C° 0.2 mm 3 mps 738 mmHg 87%
    21:00 +17°C° 0 mm 2 mps 738 mmHg 88%
    22:00 +17°C° 0 mm 2 mps 738 mmHg 89%
    23:00 +16°C° 0 mm 1 mps 737 mmHg 90%

    Day after tomorrow, 26 May, Sunday

    Time Temperature Precipitation Wind Pressure Humidity
    00:00 +16°C° 0 mm 1 mps 737 mmHg 90%
    01:00 +16°C° 0 mm 1 mps 737 mmHg 90%
    02:00 +16°C° 0 mm 1 mps 737 mmHg 91%
    03:00 +16°C° 0.1 mm 1 mps 737 mmHg 91%
    04:00 +16°C° 0.1 mm 1 mps 737 mmHg 91%
    05:00 +15°C° 0.1 mm 0 mps 737 mmHg 92%
    06:00 +19°C° 0.2 mm 1 mps 737 mmHg 87%
    07:00 +20°C° 0.2 mm 1 mps 737 mmHg 83%
    08:00 +20°C° 0.2 mm 2 mps 737 mmHg 79%
    09:00 +20°C° 0.9 mm 2 mps 737 mmHg 75%
    10:00 +21°C° 0.9 mm 2 mps 737 mmHg 72%
    11:00 +23°C° 0.9 mm 2 mps 737 mmHg 69%
    12:00 +23°C° 0.8 mm 2 mps 737 mmHg 70%
    13:00 +22°C° 0.8 mm 3 mps 737 mmHg 72%
    14:00 +22°C° 0.8 mm 4 mps 738 mmHg 73%
    15:00 +22°C° 0.3 mm 4 mps 738 mmHg 76%
    16:00 +21°C° 0.3 mm 4 mps 738 mmHg 79%
    17:00 +21°C° 0.3 mm 5 mps 738 mmHg 81%
    18:00 +20°C° 0.1 mm 4 mps 739 mmHg 84%
    19:00 +19°C° 0.1 mm 4 mps 739 mmHg 87%
    20:00 +18°C° 0.1 mm 4 mps 739 mmHg 90%
    21:00 +17°C° 0 mm 4 mps 740 mmHg 91%
    22:00 +16°C° 0 mm 3 mps 740 mmHg 92%
    23:00 +16°C° 0 mm 3 mps 741 mmHg 93%

    27 May, Monday

    Time Temperature Precipitation Wind Pressure Humidity
    00:00 +14°C° 0 mm 3 mps 741 mmHg 94%
    01:00 +14°C° 0 mm 3 mps 742 mmHg 94%
    02:00 +13°C° 0 mm 3 mps 742 mmHg 94%
    03:00 +13°C° 0 mm 3 mps 742 mmHg 94%
    04:00 +14°C° 0 mm 3 mps 743 mmHg 93%
    05:00 +14°C° 0 mm 3 mps 743 mmHg 92%
    06:00 +17°C° 0 mm 3 mps 744 mmHg 84%
    07:00 +18°C° 0 mm 3 mps 744 mmHg 77%
    08:00 +20°C° 0 mm 3 mps 745 mmHg 69%
    09:00 +21°C° 0 mm 3 mps 745 mmHg 67%
    10:00 +22°C° 0 mm 4 mps 745 mmHg 64%
    11:00 +23°C° 0 mm 4 mps 745 mmHg 61%
    12:00 +23°C° 0.4 mm 4 mps 745 mmHg 62%
    13:00 +25°C° 0.4 mm 5 mps 745 mmHg 63%
    14:00 +25°C° 0.4 mm 5 mps 745 mmHg 64%
    15:00 +23°C° 0.7 mm 4 mps 745 mmHg 69%
    16:00 +23°C° 0.7 mm 4 mps 745 mmHg 73%
    17:00 +22°C° 0.7 mm 4 mps 746 mmHg 78%
    18:00 +21°C° 0.3 mm 3 mps 746 mmHg 82%
    19:00 +20°C° 0.3 mm 2 mps 746 mmHg 85%
    20:00 +18°C° 0.3 mm 2 mps 746 mmHg 89%
    21:00 +18°C° 0 mm 2 mps 746 mmHg 90%
    22:00 +19°C° 0 mm 1 mps 746 mmHg 90%
    23:00 +18°C° 0 mm 1 mps 747 mmHg 90%

    28 May, Tuesday

    Time Temperature Precipitation Wind Pressure Humidity
    00:00 +18°C° 0 mm 1 mps 747 mmHg 91%
    01:00 +17°C° 0 mm 2 mps 747 mmHg 91%
    02:00 +17°C° 0 mm 2 mps 747 mmHg 91%
    03:00 +17°C° 0 mm 2 mps 747 mmHg 90%
    04:00 +17°C° 0 mm 2 mps 747 mmHg 90%
    05:00 +17°C° 0 mm 2 mps 748 mmHg 90%
    06:00 +19°C° 0 mm 2 mps 748 mmHg 85%
    07:00 +21°C° 0 mm 3 mps 748 mmHg 80%
    08:00 +24°C° 0 mm 3 mps 748 mmHg 75%
    09:00 +25°C° 0.1 mm 3 mps 748 mmHg 70%
    10:00 +26°C° 0.1 mm 4 mps 748 mmHg 64%
    11:00 +28°C° 0.1 mm 4 mps 748 mmHg 59%
    12:00 +28°C° 0 mm 4 mps 748 mmHg 58%
    13:00 +28°C° 0 mm 4 mps 748 mmHg 58%
    14:00 +28°C° 0 mm 4 mps 748 mmHg 57%
    15:00 +28°C° 0 mm 4 mps 748 mmHg 61%
    16:00 +28°C° 0 mm 3 mps 747 mmHg 66%
    17:00 +28°C° 0 mm 2 mps 747 mmHg 70%
    18:00 +26°C° 0 mm 2 mps 747 mmHg 73%
    19:00 +24°C° 0 mm 2 mps 747 mmHg 76%
    20:00 +21°C° 0 mm 2 mps 748 mmHg 79%
    21:00 +21°C° 0 mm 2 mps 748 mmHg 80%
    22:00 +20°C° 0 mm 2 mps 748 mmHg 81%
    23:00 +19°C° 0 mm 2 mps 748 mmHg 83%

    29 May, Wednesday

    Time Temperature Precipitation Wind Pressure Humidity
    00:00 +19°C° 0 mm 2 mps 748 mmHg 85%
    01:00 +18°C° 0 mm 2 mps 748 mmHg 87%
    02:00 +18°C° 0 mm 2 mps 748 mmHg 89%
    03:00 +18°C° 0 mm 2 mps 748 mmHg 89%
    04:00 +18°C° 0 mm 2 mps 748 mmHg 88%
    05:00 +19°C° 0 mm 2 mps 748 mmHg 87%
    06:00 +20°C° 0 mm 3 mps 748 mmHg 82%
    07:00 +22°C° 0 mm 4 mps 748 mmHg 77%
    08:00 +25°C° 0 mm 5 mps 748 mmHg 71%
    09:00 +26°C° 0 mm 5 mps 748 mmHg 68%
    10:00 +27°C° 0 mm 5 mps 748 mmHg 64%
    11:00 +28°C° 0 mm 6 mps 748 mmHg 61%
    12:00 +29°C° 0 mm 6 mps 747 mmHg 60%
    13:00 +29°C° 0 mm 6 mps 747 mmHg 59%
    14:00 +29°C° 0 mm 5 mps 747 mmHg 58%
    15:00 +29°C° 0 mm 5 mps 747 mmHg 62%
    16:00 +29°C° 0 mm 4 mps 747 mmHg 66%
    17:00 +29°C° 0 mm 3 mps 747 mmHg 71%
    18:00 +27°C° 0 mm 3 mps 746 mmHg 74%
    19:00 +25°C° 0 mm 3 mps 746 mmHg 77%
    20:00 +22°C° 0 mm 3 mps 746 mmHg 80%
    21:00 +22°C° 0 mm 3 mps 746 mmHg 82%
    22:00 +21°C° 0 mm 3 mps 746 mmHg 84%
    23:00 +21°C° 0 mm 3 mps 746 mmHg 85%
    Show more